Location: Bouillancy
(49.1149°N, 2.9308°E)
Time: 08:18:09
(UTC+00:00)

ATLAS 2AS CENTAUR R/B - Pass Details

Date: 30 September 2020
Orbit: 939 x 1273 km, 63.7° (Epoch: 27 October)

Event Time Altitude Azimuth Distance (km) Brightness Sun altitude
Rises 23:13:47 0° 302° (WNW) 4,225 6.2 -43.9°
Reaches altitude 10° 23:17:08 10° 314° (NW) 3,231 5.6 -43.9°
Maximum altitude 23:23:45 29° 12° (NNE) 2,060 4.5 -44.1°
Enters shadow 23:25:53 25° 39° (NE) 2,183 4.5 -44.1°
